Temperature
23 23 23 23 20 20 24 25 25 26 26 27 27 26 24 23 23 21 21 21 20 20 20 20 20 20 20 20 20 20 20 20 20 20 20 20 20 20 20 20 20 20 20 20 20 20 19 19 19
24 24 24 23 20 21 24 25 26 27 27 27 26 25 24 23 22 21 20 20 21 21 20 20 20 20 20 20 20 20 20 20 20 20 20 20 20 20 20 20 20 20 20 20 20 19 19 19 19
24 24 24 21 22 23 25 25 26 28 29 28 26 25 24 22 22 21 21 21 21 21 21 20 20 20 20 20 20 20 20 20 19 19 20 20 20 20 20 20 20 20 20 20 20 19 19 19 19
25 24 24 21 24 25 26 26 27 28 28 27 26 24 24 23 22 22 21 21 21 21 21 20 20 20 20 20 20 20 19 19 19 19 19 20 20 20 20 20 20 20 20 20 19 19 19 19 19
25 24 22 22 24 26 26 28 28 27 27 26 25 23 23 23 23 22 21 21 21 21 21 20 20 20 20 20 20 20 19 19 19 19 19 19 19 19 19 19 19 19 19 19 19 19 19 19 19
25 22 21 22 23 26 27 28 29 27 26 25 24 23 22 22 22 21 21 21 22 22 21 21 20 20 20 20 20 20 19 19 19 19 19 19 19 19 19 19 19 19 19 19 19 19 19 19 19
24 21 22 22 23 24 26 27 28 27 26 26 25 23 22 22 22 22 21 21 22 22 21 21 21 20 20 20 20 19 19 19 19 19 19 19 19 19 19 19 19 19 19 19 19 19 19 19 19
26 21 22 21 22 23 25 26 28 28 27 26 26 23 22 22 22 22 21 21 21 21 21 21 21 21 20 20 20 19 19 19 19 19 19 19 19 19 19 19 19 19 19 19 19 19 19 19 19
25 20 21 21 22 22 24 25 27 28 27 27 26 25 24 23 22 22 21 21 21 21 21 21 21 21 20 20 20 19 19 19 19 19 19 19 19 19 19 19 19 19 19 19 19 19 19 19 19
25 21 22 22 21 22 23 25 26 26 25 25 25 25 24 23 23 22 22 22 21 21 21 21 21 21 20 20 20 19 19 19 19 19 19 19 19 19 19 18 18 19 19 19 19 19 19 19 19
25 23 23 23 23 24 24 24 26 25 24 25 24 24 24 23 23 23 23 23 23 22 22 21 21 21 21 20 20 19 19 19 19 19 19 19 18 18 18 18 19 19 19 19 19 18 18 18 18
26 25 24 24 25 25 25 25 25 24 24 25 25 25 24 23 23 23 23 23 23 22 22 22 21 21 21 21 20 20 19 19 19 19 19 19 18 18 19 18 19 19 19 19 19 18 18 18 18
26 25 26 26 26 26 26 25 24 24 24 25 25 24 23 23 23 23 23 23 22 22 22 22 22 21 21 21 20 20 20 20 19 19 19 19 19 19 18 18 18 19 19 19 18 18 18 18 18
26 26 26 26 26 25 24 23 23 22 23 23 23 23 22 22 22 22 22 22 22 22 22 22 22 22 21 21 21 21 20 20 19 19 19 19 18 18 18 18 18 18 19 19 19 18 18 18 18
27 25 24 23 23 23 23 21 21 22 23 22 22 21 21 21 21 20 20 21 21 21 22 22 22 22 21 21 21 21 20 20 20 20 19 19 19 18 18 18 18 18 18 18 18 18 18 18 18
24 23 22 22 22 22 23 20 20 21 22 21 20 20 20 19 19 19 20 20 20 21 21 21 21 21 21 21 21 21 21 20 20 20 19 19 19 18 18 18 18 18 18 18 18 18 18 18 18
21 21 22 22 21 21 21 20 20 20 21 19 19 19 19 19 19 19 19 19 19 20 20 21 21 21 21 21 21 21 21 20 20 20 19 19 19 18 18 19 19 19 18 18 18 18 18 18 18
21 21 21 21 21 20 19 19 19 19 19 17 17 17 17 17 17 18 18 18 19 19 20 20 20 20 21 21 21 20 20 20 20 20 19 19 19 19 19 19 19 18 18 18 18 18 18 18 18
20 20 19 20 21 20 19 18 17 17 16 16 15 16 16 16 17 17 18 18 18 18 19 19 20 20 20 20 20 20 20 20 20 20 19 19 19 19 19 19 19 18 18 18 18 18 18 18 18
19 18 18 19 20 20 17 16 16 15 15 15 14 14 14 15 16 16 17 17 17 17 18 18 19 19 20 20 20 20 20 20 20 20 19 19 19 19 19 18 18 18 18 18 18 18 18 18 18
19 18 19 19 19 19 17 15 14 14 14 14 13 13 14 14 14 15 16 16 16 16 16 17 18 18 19 19 20 20 19 19 19 19 19 19 18 18 18 18 18 18 18 18 18 18 18 17 17
17 18 19 19 17 16 17 14 12 13 13 13 13 12 13 13 14 14 15 15 15 15 15 16 16 17 18 19 19 19 19 19 19 19 18 18 18 18 18 18 18 18 18 18 17 17 17 17 17
17 18 17 18 17 15 15 13 12 12 12 12 12 12 12 12 13 13 14 14 14 14 15 15 15 16 17 17 18 18 19 19 19 18 18 17 17 17 17 17 17 17 17 17 17 17 17 17 17
16 16 16 14 13 13 13 13 12 11 11 12 12 12 12 12 12 13 13 13 14 14 14 14 14 15 15 16 16 17 17 18 18 18 17 17 17 16 16 16 16 16 16 16 16 16 16 16 16
14 13 13 13 12 13 13 12 11 12 12 11 11 11 11 11 12 12 12 13 13 13 13 13 13 14 14 15 15 15 16 16 16 16 16 16 16 16 16 16 16 16 16 16 16 16 16 16 16
15 13 12 13 13 13 13 12 11 12 12 11 11 11 11 11 11 12 12 12 12 13 13 13 13 13 13 14 14 14 14 14 15 15 15 15 15 15 15 15 15 15 15 15 15 15 15 15 15
14 13 13 12 13 12 12 12 12 12 12 11 11 11 11 11 11 12 12 12 12 12 12 13 13 13 13 13 13 13 14 14 14 14 14 14 14 14 14 14 14 14 14 14 14 15 15 15 15
14 14 11 11 11 11 12 12 11 10 11 11 11 10 11 11 11 12 12 12 12 12 12 12 13 12 12 13 13 13 13 13 13 13 13 13 13 14 14 14 14 14 14 14 14 14 14 14 15
13 13 11 10 11 11 11 11 11 10 10 10 10 10 11 11 12 12 12 12 12 12 12 12 12 12 13 13 13 13 13 13 13 13 13 13 13 13 13 13 13 13 13 14 14 14 14 15 15
14 13 11 10 10 10 11 11 12 10 10 10 10 11 12 12 12 12 12 12 12 12 12 12 13 13 13 13 13 13 13 13 13 13 13 13 13 13 13 13 14 14 14 14 14 14 14 15 15
Wind_Speed
6 3 3 3 6 6 4 2 4 6 6 6 8 11 8 5 4 5 6 15 18 15 16 18 18 17 17 16 15 15 14 14 14 14 13 12 12 11 11 10 10 10 9 9 8 8 8 8 8
3 1 2 4 6 5 2 2 6 4 7 10 9 8 8 5 5 9 8 15 19 17 17 17 18 17 16 16 15 14 14 14 13 13 12 12 11 11 10 10 10 9 8 8 8 7 7 8 8
3 1 3 4 4 5 4 4 6 4 6 7 6 6 6 6 7 6 12 19 17 16 16 17 19 17 16 15 14 14 14 14 13 13 12 11 11 10 10 10 9 9 8 8 7 6 6 7 7
1 3 5 5 3 5 7 6 5 3 5 7 7 6 5 3 6 11 20 19 18 14 16 18 18 17 15 14 14 14 14 14 14 13 12 11 11 11 10 10 9 9 8 7 6 6 6 6 7
3 4 6 4 2 2 2 2 4 5 4 7 9 6 4 4 16 22 20 18 17 14 15 17 18 16 15 14 14 14 14 14 14 13 12 11 11 11 10 10 9 8 8 7 6 6 6 6 6
5 5 5 3 5 4 3 4 6 10 10 10 10 7 3 7 17 19 18 16 16 16 15 17 18 17 15 14 14 14 14 14 14 13 12 11 11 11 11 10 9 8 7 7 6 6 7 7 6
4 4 3 3 4 5 6 6 5 8 8 7 9 7 5 6 13 17 17 15 15 14 14 14 16 16 16 15 14 14 14 14 14 13 13 12 12 12 11 10 9 8 7 6 6 6 6 6 6
5 4 4 4 5 6 10 7 5 6 7 7 6 9 7 9 12 15 15 14 13 12 12 11 14 15 14 14 15 15 15 15 15 14 14 13 13 13 12 11 10 8 7 6 6 6 6 5 4
5 5 2 1 2 5 9 7 7 7 8 5 4 6 11 15 14 15 12 10 11 12 11 11 11 13 14 14 15 15 15 16 15 15 15 14 12 13 13 12 11 10 8 7 6 6 5 4 3
5 4 3 4 3 2 7 6 4 6 9 7 7 7 13 15 15 17 17 16 15 15 14 13 13 12 13 14 14 13 14 15 14 14 14 13 12 13 12 13 13 11 10 8 7 7 6 5 4
4 6 5 4 5 3 2 4 4 4 5 2 8 12 13 12 13 15 17 18 19 18 16 15 14 12 12 9 11 11 11 12 13 15 14 13 12 11 11 10 11 11 10 8 7 7 7 6 5
2 3 6 6 5 4 4 2 3 4 2 3 7 12 12 10 11 12 13 14 14 17 18 17 16 14 13 11 9 10 9 9 10 14 15 13 8 7 8 8 9 10 9 8 7 6 8 8 8
2 1 2 3 4 2 0 3 4 6 8 7 10 10 7 5 2 1 1 6 7 13 16 18 18 17 14 11 9 9 9 10 13 14 16 15 8 6 7 7 9 10 10 8 7 6 6 7 8
3 2 2 3 2 5 5 6 6 7 10 12 12 10 8 7 6 6 7 5 1 3 8 12 16 17 15 13 12 10 10 12 13 13 16 17 13 9 7 6 7 9 11 11 9 7 5 5 4
3 3 5 6 4 3 6 7 6 6 9 13 11 10 12 11 12 10 8 8 7 5 2 4 11 13 15 14 14 10 11 12 10 12 16 17 15 13 10 8 8 9 13 11 7 6 5 4 4
5 5 4 5 5 4 6 3 4 6 9 11 11 11 12 12 12 11 11 11 11 10 8 5 3 7 11 12 12 10 10 11 10 12 14 16 17 16 12 10 10 12 12 7 5 4 4 4 4
7 4 3 4 5 4 5 2 3 6 10 12 12 11 11 12 14 13 12 12 12 12 11 10 7 3 5 9 9 9 9 10 9 11 11 14 16 16 11 9 9 11 7 6 6 4 4 4 3
5 4 4 5 6 5 5 4 7 11 14 14 14 13 13 13 12 12 13 12 12 12 12 12 10 9 6 3 5 5 7 8 7 7 9 12 12 14 11 6 8 8 7 6 5 5 3 3 4
6 6 5 5 6 5 7 9 13 15 17 17 16 15 15 13 11 12 14 13 12 13 13 13 13 11 7 3 2 4 7 7 6 6 7 8 9 11 9 7 7 7 7 7 7 5 5 3 3
9 7 6 5 7 5 10 12 11 17 17 15 15 16 16 16 16 16 15 15 14 14 13 11 11 11 9 5 3 3 4 4 5 4 4 5 6 7 7 8 7 7 6 7 6 5 4 2 3
6 4 3 4 6 5 7 7 12 11 16 18 19 17 17 16 15 16 15 14 14 14 13 12 11 11 11 9 4 1 1 1 1 2 2 2 3 4 5 6 6 6 6 7 6 6 6 4 2
5 6 6 5 3 3 3 3 8 11 16 20 19 19 19 16 14 13 13 13 13 12 12 11 11 11 11 10 6 2 3 4 5 5 4 4 3 2 3 4 5 6 5 6 6 5 4 5 4
6 9 6 3 1 2 5 5 5 8 15 18 17 18 17 14 14 13 12 12 11 12 11 11 11 11 11 11 8 3 0 2 3 5 6 5 4 3 2 2 3 4 4 5 5 5 5 4 4
7 6 7 7 6 5 6 5 6 8 12 16 16 16 15 13 13 12 11 10 10 10 10 10 10 10 10 10 10 7 3 3 5 5 6 5 4 4 4 3 3 4 4 4 5 5 5 5 5
9 7 6 8 7 2 4 7 4 7 10 12 14 14 14 12 12 11 11 11 11 11 10 10 9 9 10 10 10 8 7 5 4 4 5 5 4 3 3 4 3 3 4 4 4 4 4 5 5
6 6 5 2 1 1 5 4 1 6 9 11 11 12 13 12 11 11 11 10 10 10 9 9 8 8 9 9 8 8 7 5 5 5 4 4 2 2 3 3 3 3 2 2 2 2 3 4 5
5 4 1 5 2 3 3 2 2 10 14 14 14 14 13 12 12 11 11 10 10 9 8 8 8 8 8 8 8 7 7 6 5 5 4 3 2 2 2 2 2 2 1 1 1 2 3 4 4
4 2 6 5 3 3 3 3 7 15 17 16 15 13 12 12 12 12 11 10 10 9 7 7 7 7 7 8 7 6 6 5 4 4 4 3 2 2 2 2 1 1 1 1 1 2 2 4 4
8 6 5 5 4 3 2 3 6 11 13 13 13 11 11 11 10 10 9 9 8 9 9 8 8 7 7 7 7 7 6 5 4 3 2 2 2 2 1 2 1 2 2 2 2 3 4 5 4
6 5 4 5 4 3 2 3 6 8 9 10 10 10 9 9 8 7 8 8 9 10 9 9 9 8 7 6 6 7 7 6 6 5 4 3 2 2 2 2 2 3 3 2 2 3 4 5 5
Wind_Direction
306 302 109 70 54 56 80 76 86 61 53 70 87 93 93 86 112 136 138 147 140 148 155 151 148 143 139 136 134 131 129 126 124 121 118 116 115 112 109 105 101 98 94 91 90 93 102 107 109
315 295 97 58 80 79 53 120 94 108 124 118 95 99 90 71 93 110 123 144 143 149 152 153 151 146 143 140 138 136 134 131 129 127 125 123 120 118 116 113 110 106 100 95 92 95 103 109 112
280 203 80 64 99 139 162 189 158 158 122 118 93 63 83 114 118 122 141 143 142 147 151 156 153 150 147 145 142 141 139 138 137 134 133 132 129 125 122 121 119 114 108 102 98 100 110 117 121
63 55 53 68 114 194 177 202 189 141 82 83 94 58 48 123 134 131 139 143 143 147 151 157 156 154 152 151 149 147 146 145 143 141 140 140 138 133 128 126 123 119 115 110 108 109 117 128 133
86 69 46 33 341 267 213 204 157 122 94 88 92 84 35 35 119 132 143 146 145 147 152 159 159 160 160 159 157 155 154 151 149 148 148 148 146 142 137 133 129 124 122 119 118 120 125 134 140
50 58 56 8 332 325 351 9 84 103 111 112 106 105 74 116 129 143 148 149 147 151 156 162 165 166 167 167 166 163 161 159 157 157 157 157 154 151 146 141 138 134 131 129 128 131 134 140 144
83 67 34 349 337 345 348 355 77 105 119 138 126 102 119 150 146 149 149 148 150 155 159 163 168 172 175 175 174 173 170 168 167 166 166 164 162 158 155 151 149 147 147 145 144 146 149 149 149
110 85 39 6 360 330 328 353 41 88 102 125 118 127 158 184 154 148 148 150 154 159 163 166 170 173 177 179 181 180 179 177 175 174 173 172 170 166 164 162 162 163 165 166 167 168 171 170 167
86 76 80 324 343 309 328 5 25 38 75 61 81 139 161 162 148 144 149 152 161 167 172 173 174 177 178 180 186 186 184 183 182 181 180 177 174 173 172 175 176 178 180 185 190 193 198 205 220
91 110 172 189 185 267 323 340 6 46 55 55 72 102 141 153 154 155 162 169 174 178 183 183 183 182 180 185 186 185 185 185 184 184 184 179 179 182 183 188 189 188 192 199 209 216 223 233 257
124 153 178 187 176 197 274 321 2 88 56 115 152 152 155 161 166 168 173 178 184 184 185 188 188 185 184 187 180 184 183 182 185 187 187 183 185 193 198 196 200 199 201 206 221 236 245 249 257
83 145 167 188 191 194 208 193 45 51 355 301 163 158 162 167 179 184 185 186 184 185 191 190 190 188 190 187 183 184 184 185 189 193 192 188 191 200 199 195 199 200 204 207 218 230 248 257 257
64 141 169 198 217 227 105 60 84 21 354 28 89 100 106 123 133 36 237 203 188 190 195 193 192 190 189 185 184 186 189 192 195 196 198 195 193 196 193 196 199 207 211 211 214 219 232 247 255
224 219 285 332 347 22 63 42 46 2 2 41 62 69 69 69 59 45 34 36 28 204 204 196 194 191 186 186 187 187 191 194 196 198 200 199 196 193 190 195 199 211 216 216 214 216 218 223 211
311 336 357 6 31 26 88 47 15 346 28 44 47 52 56 50 46 41 29 24 17 5 337 227 204 195 190 190 189 187 191 193 197 201 202 200 198 195 194 199 203 210 216 217 214 215 207 188 176
12 30 6 358 23 7 86 99 329 352 47 47 44 48 53 46 42 39 35 30 24 17 4 345 241 212 204 198 193 189 191 192 198 200 202 204 204 199 196 202 205 206 207 207 191 177 165 173 163
26 15 355 351 21 13 69 125 330 9 55 53 43 35 36 36 32 30 33 34 28 21 14 8 360 334 234 214 203 197 193 194 197 197 199 205 207 200 190 194 196 194 188 187 187 164 151 156 163
345 2 8 7 5 34 58 50 25 29 52 48 38 29 23 27 21 19 26 31 28 22 16 12 6 359 335 260 212 207 204 200 197 195 198 199 201 195 184 180 180 175 167 169 170 151 139 145 157
64 65 34 20 7 30 65 57 48 41 42 37 28 22 14 10 10 15 22 23 22 21 16 11 6 359 355 334 245 213 209 201 196 196 188 188 187 182 173 170 168 165 162 164 154 140 135 134 135
50 53 19 336 349 30 81 64 51 44 38 30 22 14 6 4 9 11 14 17 17 13 9 6 359 350 346 326 274 240 223 208 190 182 168 169 172 175 176 164 162 160 152 150 151 143 140 145 139
17 47 351 315 348 22 103 60 30 28 28 22 16 10 5 5 5 4 5 9 9 9 4 360 352 348 343 334 312 279 152 112 138 159 170 150 155 170 165 168 161 163 161 165 164 157 153 165 178
325 318 315 308 8 325 60 109 22 1 13 12 5 1 357 354 359 1 2 3 4 1 358 355 353 352 349 345 337 277 199 191 187 171 169 141 130 155 160 164 165 164 165 165 170 164 160 157 177
302 301 304 295 171 44 17 102 19 359 5 357 354 353 349 349 353 357 359 357 357 355 355 354 354 357 355 354 351 344 170 167 148 142 141 134 126 120 121 158 161 160 165 172 173 166 168 167 171
333 353 29 45 71 55 347 87 39 9 349 342 344 345 343 348 351 353 354 355 354 353 355 355 357 359 359 2 6 12 39 91 126 136 145 146 138 134 141 148 157 161 168 176 175 172 176 181 177
20 43 32 23 28 35 35 75 60 352 344 336 336 337 341 348 350 352 356 356 352 351 353 355 1 2 0 7 14 21 32 53 86 112 126 135 137 145 159 146 163 164 169 176 175 178 186 183 184
10 73 105 112 299 335 36 72 137 352 341 338 341 342 350 351 352 353 355 352 348 347 352 355 1 4 2 7 14 23 34 45 54 64 85 99 109 135 151 148 153 146 151 165 173 180 199 194 202
19 9 153 149 49 67 53 52 313 346 349 350 351 353 357 354 355 357 355 352 350 348 354 357 3 7 6 9 16 25 35 48 58 62 67 74 76 94 106 128 130 124 127 172 203 206 203 186 192
48 17 55 67 72 47 27 22 342 335 338 341 346 349 350 350 354 357 355 352 353 351 356 4 11 11 11 13 17 24 26 36 47 57 60 58 47 46 51 58 52 6 299 287 268 249 212 187 188
6 20 60 76 87 96 23 349 330 318 322 326 332 338 339 341 343 346 348 348 353 3 10 13 11 13 15 17 17 20 18 21 31 35 24 21 17 9 7 351 338 306 274 255 243 239 215 195 194
46 27 78 102 63 64 89 322 309 311 312 317 322 325 329 334 338 340 343 351 1 12 14 15 15 17 10 10 19 20 20 26 31 29 22 17 6 359 355 353 351 338 324 317 273 254 239 212 202
Height
1516 1514 1513 1514 1517 1527 1528 1520 1513 1511 1510 1510 1510 1511 1515 1519 1522 1529 1526 1527 1531 1533 1536 1539 1541 1542 1543 1544 1545 1546 1547 1547 1548 1549 1550 1550 1551 1552 1552 1552 1553 1553 1553 1553 1554 1554 1555 1556 1557
1516 1514 1515 1515 1526 1540 1531 1517 1513 1510 1511 1511 1513 1514 1516 1519 1520 1522 1524 1528 1531 1534 1536 1539 1541 1542 1544 1545 1546 1546 1547 1548 1549 1549 1550 1551 1552 1553 1553 1553 1553 1553 1553 1554 1554 1554 1555 1556 1557
1515 1514 1516 1518 1528 1534 1527 1515 1510 1508 1508 1509 1513 1516 1518 1521 1521 1522 1525 1529 1532 1534 1537 1539 1541 1543 1544 1545 1546 1547 1547 1548 1549 1550 1551 1552 1553 1553 1554 1554 1554 1554 1554 1554 1554 1555 1555 1556 1557
1515 1516 1516 1523 1527 1520 1514 1510 1508 1508 1510 1511 1514 1519 1521 1523 1522 1523 1527 1530 1533 1535 1537 1539 1541 1543 1544 1545 1546 1547 1548 1548 1549 1550 1551 1552 1553 1553 1554 1554 1554 1554 1554 1554 1554 1555 1555 1556 1557
1515 1515 1522 1528 1524 1515 1510 1507 1507 1509 1511 1514 1514 1521 1524 1524 1524 1525 1529 1532 1534 1536 1538 1540 1542 1543 1544 1545 1546 1547 1548 1549 1550 1550 1551 1552 1553 1553 1554 1554 1554 1554 1554 1555 1555 1555 1556 1557 1558
1517 1518 1532 1536 1527 1516 1511 1509 1508 1510 1513 1515 1517 1521 1526 1526 1525 1528 1530 1533 1535 1536 1539 1540 1542 1543 1544 1545 1546 1547 1548 1549 1550 1551 1551 1552 1553 1553 1553 1554 1554 1554 1555 1555 1555 1556 1556 1557 1558
1519 1524 1532 1533 1530 1522 1514 1511 1510 1511 1513 1515 1516 1521 1527 1528 1528 1529 1531 1534 1536 1537 1539 1540 1542 1543 1544 1545 1546 1546 1547 1548 1549 1550 1551 1552 1552 1553 1553 1554 1554 1554 1555 1555 1556 1557 1557 1558 1559
1520 1525 1533 1534 1532 1527 1517 1513 1512 1511 1514 1516 1516 1520 1525 1527 1528 1530 1532 1534 1536 1537 1538 1540 1541 1542 1543 1544 1545 1546 1547 1547 1548 1549 1550 1551 1552 1553 1553 1554 1554 1554 1555 1555 1556 1557 1558 1559 1559
1522 1532 1539 1536 1534 1529 1520 1517 1515 1514 1514 1515 1516 1518 1520 1525 1527 1529 1531 1533 1535 1536 1538 1539 1540 1541 1542 1543 1544 1545 1546 1547 1548 1549 1550 1550 1551 1552 1553 1553 1554 1554 1555 1555 1556 1557 1558 1559 1560
1522 1535 1534 1530 1529 1527 1523 1520 1518 1518 1517 1518 1519 1520 1522 1524 1526 1527 1529 1530 1532 1534 1535 1537 1538 1539 1540 1541 1542 1543 1544 1545 1546 1547 1548 1549 1550 1551 1552 1553 1553 1554 1554 1555 1556 1557 1559 1560 1560
1521 1527 1527 1526 1525 1524 1524 1522 1520 1519 1521 1521 1520 1521 1523 1524 1525 1526 1527 1527 1529 1531 1532 1534 1535 1537 1538 1539 1540 1541 1542 1543 1545 1546 1547 1548 1549 1550 1551 1552 1552 1553 1554 1555 1556 1558 1559 1560 1561
1521 1522 1523 1523 1522 1522 1521 1521 1522 1521 1523 1521 1520 1520 1522 1524 1525 1525 1526 1526 1527 1529 1530 1531 1533 1534 1535 1536 1538 1539 1540 1541 1542 1544 1545 1546 1548 1549 1550 1551 1552 1553 1554 1555 1556 1558 1559 1560 1561
1521 1521 1521 1521 1521 1521 1520 1521 1523 1525 1524 1522 1521 1522 1524 1525 1526 1528 1528 1528 1528 1528 1528 1529 1529 1530 1532 1534 1535 1536 1538 1539 1540 1541 1543 1544 1546 1547 1549 1550 1552 1553 1554 1555 1556 1557 1558 1559 1560
1520 1520 1520 1520 1520 1521 1522 1525 1526 1528 1527 1525 1524 1525 1526 1527 1527 1527 1527 1527 1527 1528 1527 1528 1528 1528 1529 1530 1532 1533 1535 1536 1537 1539 1540 1542 1544 1546 1547 1549 1551 1552 1554 1555 1556 1557 1558 1559 1559
1519 1520 1522 1522 1521 1523 1523 1531 1531 1531 1529 1529 1529 1529 1528 1528 1528 1528 1527 1526 1526 1527 1527 1527 1527 1527 1527 1528 1529 1530 1532 1533 1534 1536 1537 1539 1541 1543 1545 1547 1549 1551 1552 1554 1555 1556 1557 1558 1559
1521 1526 1532 1528 1525 1525 1528 1538 1534 1531 1531 1532 1533 1532 1531 1530 1529 1528 1527 1526 1525 1524 1525 1525 1525 1526 1526 1526 1526 1527 1528 1530 1531 1533 1534 1536 1538 1540 1542 1544 1546 1549 1550 1552 1553 1554 1555 1557 1558
1534 1540 1538 1533 1530 1528 1531 1538 1535 1535 1533 1535 1537 1536 1535 1532 1530 1529 1528 1526 1525 1523 1522 1522 1522 1522 1522 1523 1524 1524 1525 1526 1528 1530 1531 1533 1536 1538 1539 1541 1544 1546 1548 1549 1551 1553 1554 1555 1556
1545 1542 1542 1540 1535 1533 1537 1540 1540 1540 1539 1541 1540 1539 1538 1535 1533 1531 1528 1526 1524 1523 1521 1519 1519 1519 1519 1520 1521 1522 1523 1523 1525 1526 1528 1530 1533 1535 1536 1538 1541 1543 1545 1547 1549 1550 1552 1553 1554
1541 1544 1547 1542 1537 1537 1543 1547 1548 1547 1546 1546 1545 1542 1541 1538 1535 1532 1529 1526 1524 1521 1519 1517 1516 1515 1515 1516 1516 1518 1518 1519 1521 1523 1525 1527 1529 1531 1533 1535 1537 1539 1541 1543 1545 1547 1549 1550 1552
1543 1548 1550 1545 1539 1539 1548 1553 1553 1553 1554 1554 1551 1548 1544 1539 1535 1531 1528 1526 1523 1520 1518 1515 1514 1513 1512 1512 1512 1513 1515 1516 1517 1520 1522 1524 1526 1528 1529 1531 1533 1535 1537 1540 1542 1543 1545 1547 1548
1546 1549 1549 1548 1543 1541 1548 1560 1561 1559 1558 1556 1553 1550 1547 1543 1538 1533 1529 1526 1523 1520 1517 1514 1512 1510 1509 1508 1508 1509 1510 1512 1513 1514 1516 1518 1521 1524 1526 1527 1529 1531 1533 1535 1537 1539 1541 1543 1544
1552 1544 1543 1543 1549 1556 1551 1570 1571 1564 1561 1558 1556 1552 1548 1545 1540 1535 1531 1527 1524 1521 1517 1514 1511 1508 1506 1504 1504 1504 1505 1506 1507 1508 1511 1512 1515 1519 1522 1524 1525 1527 1529 1531 1532 1534 1536 1538 1540
1548 1541 1541 1541 1548 1558 1559 1570 1577 1569 1567 1564 1560 1555 1551 1547 1542 1537 1534 1529 1525 1521 1517 1514 1510 1507 1504 1502 1500 1499 1500 1501 1502 1504 1506 1507 1510 1512 1516 1519 1521 1523 1525 1527 1528 1530 1532 1533 1534
1545 1543 1544 1549 1557 1572 1570 1574 1581 1578 1575 1569 1562 1557 1553 1547 1543 1539 1535 1530 1526 1522 1518 1514 1510 1506 1503 1500 1498 1497 1497 1497 1498 1500 1502 1503 1506 1508 1510 1514 1517 1518 1521 1523 1525 1526 1527 1529 1530
1552 1560 1570 1573 1580 1581 1573 1577 1585 1580 1576 1571 1565 1559 1553 1548 1543 1539 1535 1530 1526 1522 1519 1515 1511 1507 1504 1501 1498 1497 1496 1496 1497 1498 1500 1501 1502 1505 1508 1511 1513 1514 1517 1520 1521 1523 1524 1525 1526
1560 1566 1581 1586 1585 1583 1578 1582 1584 1579 1575 1570 1565 1559 1553 1548 1544 1540 1535 1531 1527 1523 1519 1516 1512 1509 1506 1503 1500 1498 1497 1497 1497 1498 1499 1500 1502 1504 1506 1507 1510 1512 1514 1517 1518 1520 1521 1522 1524
1565 1569 1568 1578 1577 1584 1584 1582 1579 1576 1573 1569 1564 1560 1554 1549 1544 1540 1536 1532 1528 1524 1520 1517 1514 1511 1508 1505 1503 1501 1500 1499 1499 1499 1499 1500 1501 1503 1504 1505 1507 1509 1512 1514 1516 1518 1519 1520 1522
1565 1567 1575 1581 1589 1593 1587 1587 1588 1580 1575 1570 1565 1561 1556 1551 1546 1541 1537 1533 1529 1525 1522 1519 1516 1513 1511 1508 1506 1504 1503 1502 1502 1501 1501 1502 1502 1503 1504 1505 1506 1508 1510 1512 1514 1516 1517 1519 1520
1571 1573 1577 1585 1587 1594 1596 1596 1587 1583 1577 1572 1567 1562 1558 1553 1548 1544 1539 1535 1531 1527 1523 1521 1518 1516 1514 1512 1510 1508 1507 1505 1505 1504 1504 1504 1504 1504 1505 1505 1506 1508 1509 1511 1513 1514 1516 1517 1519
1572 1575 1579 1589 1594 1594 1596 1599 1584 1581 1577 1573 1568 1563 1559 1555 1551 1547 1542 1538 1534 1530 1526 1523 1521 1518 1516 1514 1513 1511 1510 1509 1508 1507 1506 1506 1506 1506 1506 1507 1508 1508 1510 1511 1512 1514 1515 1516 1517